Haines, AK

12:43 PM AKST on January 20, 2017 (GMT -0900)
Haines

Weather History for PAHN - April, 2014

Change the Weather History Date:

Thursday, April 24, 2014

  Actual Average Record
Temperature  
Mean Temperature 44 °F -  
Max Temperature 52 °F 49 °F 71 °F (2005)
Min Temperature 36 °F 34 °F 28 °F (2002)
Degree Days  
Heating Degree Days 21    
Moisture  
Dew Point 37 °F    
Average Humidity 79    
Maximum Humidity 93    
Minimum Humidity 52    
Precipitation  
Precipitation 0.05 in - - ()
Sea Level Pressure  
Sea Level Pressure 29.70 in    
Wind  
Wind Speed 5 mph (ESE)    
Max Wind Speed 8 mph    
Max Gust Speed -    
Visibility 10 miles    
Events Rain    
Averages and records for this station are not official NWS values.
T = Trace of Precipitation, MM = Missing Value Source: NWS Daily Summary

Daily Weather History Graph

Daily Weather History Graph

Search for Another Location

Airport or City:

Trip Planner

Search our weather history database for the weather conditions in past years. The results will help you decide how hot, cold, wet, or windy it might be!

Date:

Astronomy

Apr. 24, 2014 Rise Set
Actual Time 5:22 AM AKDT 8:39 PM AKDT
Civil Twilight 4:33 AM AKDT 9:28 PM AKDT
Nautical Twilight 3:26 AM AKDT 10:36 PM AKDT
Astronomical Twilight 1:32 AM AKDT 12:27 AM AKDT
Moon 3:49 AM AKDT (4/24) 2:58 PM AKDT (4/24)
Length of Visible Light 16h 54m
Length of Day
15h 17m
Waning Crescent, 23% of the Moon is Illuminated
Apr 24
Waning Crescent
Apr 28
New
May 6
First Quarter
May 14
Full
May 21
Last Quarter

Hourly Weather History & Observations

Time (AKDT) Temp. Windchill Dew Point Humidity Pressure Visibility Wind Dir Wind Speed Gust Speed Precip Events Conditions
12:54 AM 39.0 °F 36.8 °F 37.0 °F 93% 29.68 in 9.0 mi East 3.5 mph - 0.01 in Rain Light Rain
1:54 AM 39.9 °F 36.7 °F 37.0 °F 89% 29.67 in 9.0 mi East 4.6 mph - 0.03 in Rain Light Rain
2:54 AM 39.9 °F 35.8 °F 37.0 °F 89% 29.67 in 10.0 mi East 5.8 mph - 0.01 in Rain Light Rain
3:42 AM 39.9 °F 35.8 °F 37.0 °F 89% 29.66 in 10.0 mi ENE 5.8 mph - 0.00 in Rain Light Rain
3:54 AM 39.9 °F 35.1 °F 37.0 °F 89% 29.68 in 10.0 mi East 6.9 mph - 0.00 in   Overcast
4:54 AM 39.9 °F 35.1 °F 37.0 °F 89% 29.67 in 10.0 mi East 6.9 mph - N/A   Overcast
5:54 AM 39.0 °F 34.8 °F 37.0 °F 93% 29.68 in 10.0 mi Variable 5.8 mph - N/A   Overcast
6:54 AM 41.0 °F 36.4 °F 37.0 °F 86% 29.68 in 10.0 mi East 6.9 mph - N/A   Overcast
7:54 AM 41.0 °F 35.8 °F 37.9 °F 89% 29.69 in 10.0 mi East 8.1 mph - N/A   Overcast
8:06 AM 41.0 °F 37.1 °F 37.9 °F 89% 29.68 in 10.0 mi East 5.8 mph - N/A   Overcast
8:54 AM 42.1 °F 39.2 °F 37.9 °F 85% 29.70 in 10.0 mi ESE 4.6 mph - N/A   Overcast
9:54 AM 43.0 °F 39.5 °F 37.0 °F 80% 29.70 in 10.0 mi East 5.8 mph - N/A   Overcast
10:07 AM 43.0 °F 38.8 °F 37.9 °F 82% 29.70 in 10.0 mi ESE 6.9 mph - N/A   Overcast
10:54 AM 44.1 °F 40.1 °F 37.9 °F 79% 29.71 in 10.0 mi ESE 6.9 mph - N/A   Overcast
11:54 AM 46.0 °F 41.9 °F 37.9 °F 73% 29.71 in 10.0 mi SE 8.1 mph - N/A   Overcast
12:54 PM 48.9 °F - 39.0 °F 69% 29.71 in 10.0 mi SE 6.9 mph - N/A   Overcast
1:54 PM 51.1 °F - 39.0 °F 63% 29.70 in 10.0 mi South 8.1 mph - N/A   Scattered Clouds
2:54 PM 51.1 °F - 34.0 °F 52% 29.71 in 10.0 mi SE 8.1 mph - N/A   Partly Cloudy
3:54 PM 51.1 °F - 36.0 °F 56% 29.70 in 10.0 mi SSE 6.9 mph - N/A   Clear
4:54 PM 50.0 °F - 34.0 °F 54% 29.71 in 10.0 mi SSE 8.1 mph - N/A   Clear
5:54 PM 50.0 °F - 33.1 °F 52% 29.72 in 10.0 mi ESE 4.6 mph - N/A   Clear
6:54 PM 48.9 °F - 37.9 °F 66% 29.72 in 10.0 mi Calm Calm - N/A   Clear
7:54 PM 46.0 °F - 37.9 °F 73% 29.73 in 10.0 mi Calm Calm - N/A   Clear
8:54 PM 41.0 °F 39.0 °F 36.0 °F 82% 29.74 in 10.0 mi East 3.5 mph - N/A   Clear
9:54 PM 39.0 °F - 35.1 °F 86% 29.75 in 10.0 mi Calm Calm - N/A   Clear
10:54 PM 37.9 °F - 34.0 °F 86% 29.77 in 10.0 mi Calm Calm - N/A   Clear
11:54 PM 36.0 °F - 33.1 °F 89% 29.78 in 10.0 mi Calm Calm - N/A   Clear